FW1589 Weather Reports


Display with metric or nautical units.
time (UTC)temp
F
wind
direction
speed
MPH
gust
MPH
rain 1hr
in
rain 24hr
in
rain mn
in
humidity
%
barometer
mb
20260906113452 57 194 3.0 6.0 0.00 0.00 0.00 89 997.0
20260906112451 57 184 3.0 6.0 0.00 0.00 0.00 89 996.9
20260906111950 57 186 3.0 7.0 0.00 0.00 0.00 89 997.0
20260906110950 57 184 4.0 7.0 0.00 0.00 0.00 89 996.9
20260906110452 57 176 4.0 7.0 0.00 0.00 0.00 89 996.8
20260906105951 57 195 4.0 7.0 0.00 0.00 0.00 89 996.8
20260906105445 57 180 4.0 9.0 0.00 0.00 0.00 89 996.8
20260906104940 57 205 4.0 9.0 0.00 0.00 0.00 89 996.9
20260906104440 57 167 3.0 7.0 0.00 0.00 0.00 89 996.9
20260906103940 57 178 2.0 5.0 0.00 0.00 0.00 89 997.0
20260906103441 56 208 1.0 5.0 0.00 0.00 0.00 89 996.9
20260906102941 57 198 1.0 4.0 0.00 0.00 0.00 89 996.9
20260906102439 57 192 1.0 5.0 0.00 0.00 0.00 89 996.9
20260906101940 57 246 2.0 5.0 0.00 0.00 0.00 89 996.9
20260906101438 57 213 2.0 7.0 0.00 0.00 0.00 89 996.9
20260906100939 57 206 3.0 7.0 0.00 0.00 0.00 89 996.9
20260906100438 57 214 3.0 7.0 0.00 0.00 0.00 89 996.9
20260906095940 57 182 4.0 7.0 0.00 0.00 0.00 89 996.7
20260906094937 57 192 3.0 7.0 0.00 0.00 0.00 88 996.7
20260906093936 57 179 3.0 7.0 0.00 0.00 0.00 88 996.8
20260906093436 57 175 4.0 8.0 0.00 0.00 0.00 88 996.9
20260906092937 57 175 4.0 8.0 0.00 0.00 0.00 88 997.0
20260906092431 57 203 3.0 7.0 0.00 0.00 0.00 88 996.9
20260906091418 57 184 3.0 7.0 0.00 0.00 0.00 87 996.9
20260906090913 57 193 3.0 8.0 0.00 0.00 0.00 87 996.9
20260906090407 58 142 3.0 8.0 0.00 0.00 0.00 87 997.0
20260906085900 58 175 3.0 6.0 0.00 0.00 0.00 87 997.0
20260906085354 58 211 3.0 6.0 0.00 0.00 0.00 87 997.0
20260906084342 58 190 2.0 7.0 0.00 0.00 0.00 86 997.0
20260906083836 58 175 2.0 6.0 0.00 0.00 0.00 86 997.0
20260906081813 58 147 2.0 6.0 0.00 0.00 0.00 85 997.0
20260906081307 58 167 3.0 6.0 0.00 0.00 0.00 85 997.0
20260906080801 58 157 3.0 6.0 0.00 0.00 0.00 84 997.0
20260906080256 59 172 3.0 6.0 0.00 0.00 0.00 84 997.0
20260906075749 59 182 2.0 6.0 0.00 0.00 0.00 83 997.0
20260906075242 59 188 1.0 4.0 0.00 0.00 0.00 83 997.0
20260906074737 59 187 1.0 4.0 0.00 0.00 0.00 82 996.9
20260906074231 59 165 1.0 4.0 0.00 0.00 0.00 81 997.0
20260906073219 59 171 0.0 5.0 0.00 0.00 0.00 80 997.0
20260906072713 59 153 0.0 2.0 0.00 0.00 0.00 80 997.0
20260906072207 60 153 0.0 2.0 0.00 0.00 0.00 80 997.0
20260906071701 60 153 1.0 3.0 0.00 0.00 0.00 80 997.0
20260906071155 60 150 0.0 4.0 0.00 0.00 0.00 80 997.0
20260906070649 60 169 0.0 4.0 0.00 0.00 0.00 80 997.0
20260906065637 60 169 1.0 5.0 0.00 0.00 0.00 79 997.0
20260906065131 60 176 1.0 4.0 0.00 0.00 0.00 79 997.1
20260906064624 60 171 1.0 4.0 0.00 0.00 0.00 79 997.1
20260906064118 60 140 1.0 4.0 0.00 0.00 0.00 78 997.1
20260906063612 60 161 0.0 4.0 0.00 0.00 0.00 78 997.0
20260906063107 60 165 1.0 4.0 0.00 0.00 0.00 79 997.1
20260906062600 60 165 1.0 5.0 0.00 0.00 0.00 79 997.1
20260906062055 60 171 1.0 5.0 0.00 0.00 0.00 79 997.3
20260906061550 60 152 0.0 3.0 0.00 0.00 0.00 79 997.2
20260906061043 60 152 0.0 3.0 0.00 0.00 0.00 78 997.3
20260906060537 60 155 0.0 1.0 0.00 0.00 0.00 78 997.3
20260906060031 60 155 0.0 2.0 0.00 0.00 0.00 77 997.2
20260906055018 61 133 0.0 2.0 0.00 0.00 0.00 77 997.3
20260906054513 61 52 0.0 0.0 0.00 0.00 0.00 76 997.3
20260906053501 61 49 0.0 0.0 0.00 0.00 0.00 76 997.3
20260906052954 61 49 0.0 0.0 0.00 0.00 0.00 76 997.4
20260906052449 61 49 0.0 0.0 0.00 0.00 0.00 76 997.4
20260906051944 61 49 0.0 0.0 0.00 0.00 0.00 75 997.5
20260906051436 61 49 0.0 0.0 0.00 0.00 0.00 75 997.5
20260906050931 61 49 0.0 0.0 0.00 0.00 0.00 75 997.5
20260906050425 61 49 0.0 0.0 0.00 0.00 0.00 75 997.5
20260906045413 61 49 0.0 0.0 0.00 0.00 0.00 74 997.5
20260906044906 61 49 0.0 0.0 0.00 0.00 0.00 74 997.4
20260906044401 62 49 0.0 0.0 0.00 0.00 0.00 74 997.4
20260906043855 62 355 0.0 0.0 0.00 0.00 0.00 74 997.4
20260906043349 62 355 0.0 0.0 0.00 0.00 0.00 73 997.3
20260906042843 62 292 0.0 0.0 0.00 0.00 0.00 73 997.3
20260906042337 62 290 0.0 0.0 0.00 0.00 0.00 72 997.3
20260906041831 63 290 0.0 0.0 0.00 0.00 0.00 72 997.1
20260906041325 63 289 0.0 0.0 0.00 0.00 0.00 71 997.1
20260906040825 63 289 0.0 0.0 0.00 0.00 0.00 71 997.0
20260906040322 63 289 0.0 0.0 0.00 0.00 0.00 70 997.0
20260906035821 64 289 0.0 0.0 0.00 0.00 0.00 70 996.9
20260906035318 64 289 0.0 0.0 0.00 0.00 0.00 70 997.0
20260906033815 64 286 0.0 0.0 0.00 0.00 0.00 69 996.8
20260906033314 64 286 0.0 0.0 0.00 0.00 0.00 69 996.9
20260906032815 64 285 0.0 1.0 0.00 0.00 0.00 68 996.8
20260906032314 64 329 0.0 2.0 0.00 0.00 0.00 67 996.8
20260906031312 65 329 1.0 4.0 0.00 0.00 0.00 67 996.6
20260906030813 65 341 0.0 4.0 0.00 0.00 0.00 69 996.7
20260906030309 65 167 0.0 0.0 0.00 0.00 0.00 69 996.5
20260906025809 65 167 0.0 0.0 0.00 0.00 0.00 69 996.5
20260906025307 65 167 0.0 0.0 0.00 0.00 0.00 69 996.4
20260906024805 66 167 0.0 3.0 0.00 0.00 0.00 69 996.4
20260906024303 66 167 0.0 3.0 0.00 0.00 0.00 68 996.5
20260906023803 66 167 1.0 4.0 0.00 0.00 0.00 68 996.5
20260906023258 66 167 0.0 4.0 0.00 0.00 0.00 68 996.5
20260906022758 66 159 1.0 4.0 0.00 0.00 0.00 68 996.5
20260906022258 66 159 2.0 4.0 0.00 0.00 0.00 67 996.5
20260906021759 66 165 2.0 4.0 0.00 0.00 0.00 67 996.5
20260906021257 67 175 1.0 4.0 0.00 0.00 0.00 68 996.5
20260906020757 67 175 2.0 5.0 0.00 0.00 0.00 67 996.5
20260906020259 67 155 1.0 5.0 0.00 0.00 0.00 67 996.5
20260906015759 67 173 1.0 5.0 0.00 0.00 0.00 67 996.6
20260906015259 67 173 2.0 5.0 0.00 0.00 0.00 66 996.5
20260906014754 68 143 2.0 6.0 0.00 0.00 0.00 67 996.7
20260906014253 68 163 3.0 6.0 0.00 0.00 0.00 66 996.6
20260906013253 68 183 3.0 6.0 0.00 0.00 0.00 64 996.5
20260906012755 69 192 3.0 6.0 0.00 0.00 0.00 63 996.6
20260906012254 69 192 3.0 6.0 0.00 0.00 0.00 62 996.6
20260906011753 69 162 3.0 6.0 0.00 0.00 0.00 62 996.6
20260906011254 69 167 3.0 6.0 0.00 0.00 0.00 61 996.6
20260906005754 70 196 4.0 8.0 0.00 0.00 0.00 59 996.7
20260906005255 70 186 4.0 9.0 0.00 0.00 0.00 59 996.6
20260906004754 71 175 4.0 9.0 0.00 0.00 0.00 58 996.6
20260906004254 71 221 3.0 8.0 0.00 0.00 0.00 57 996.6
20260906003754 71 230 4.0 9.0 0.00 0.00 0.00 59 996.7
20260906003254 71 176 4.0 9.0 0.00 0.00 0.00 59 996.6
20260906002755 70 176 3.0 8.0 0.00 0.00 0.00 57 996.7
20260906002253 70 186 3.0 5.0 0.00 0.00 0.00 59 996.6
20260906001753 70 195 3.0 6.0 0.00 0.00 0.00 60 996.7
20260906001252 70 203 4.0 8.0 0.00 0.00 0.00 61 996.6
20260906000751 70 164 4.0 9.0 0.00 0.00 0.00 60 996.6
20260906000249 70 201 4.0 9.0 0.00 0.00 0.00 61 996.6
20260905235749 71 204 5.0 8.0 0.00 0.00 0.00 62 996.6
20260905234749 71 196 5.0 10.0 0.00 0.00 0.00 64 996.7
20260905234247 71 190 5.0 10.0 0.00 0.00 0.00 63 996.6
20260905233747 71 173 5.0 10.0 0.00 0.00 0.00 62 996.6
20260905233247 72 176 4.0 10.0 0.00 0.00 0.00 63 996.7
20260905232747 72 196 3.0 8.0 0.00 0.00 0.00 65 996.7
20260905231745 72 209 3.0 7.0 0.00 0.00 0.00 64 996.8
20260905231246 71 244 3.0 7.0 0.00 0.00 0.00 64 996.9
20260905230745 71 235 4.0 8.0 0.00 0.00 0.00 65 996.8
20260905230239 72 221 4.0 8.0 0.00 0.00 0.00 65 996.9
20260905225736 71 256 4.0 9.0 0.00 0.00 0.00 66 996.9
20260905225237 71 178 4.0 9.0 0.00 0.00 0.00 66 997.0
20260905224735 72 240 4.0 9.0 0.00 0.00 0.00 65 997.0
20260905224235 72 213 4.0 9.0 0.00 0.00 0.00 63 997.0
20260905223735 72 232 4.0 9.0 0.00 0.00 0.00 62 997.1
20260905223235 72 260 4.0 9.0 0.00 0.00 0.00 64 997.1
20260905222236 72 216 4.0 10.0 0.00 0.00 0.00 63 997.1
20260905221735 71 210 4.0 8.0 0.00 0.00 0.00 64 997.1
20260905221235 71 241 4.0 9.0 0.00 0.00 0.00 63 997.1
20260905220737 72 180 4.0 9.0 0.00 0.00 0.00 65 997.2
20260905220235 72 188 4.0 11.0 0.00 0.00 0.00 65 997.2
20260905215737 71 238 4.0 11.0 0.00 0.00 0.00 66 997.3
20260905215236 71 209 5.0 10.0 0.00 0.00 0.00 67 997.4
20260905214729 71 170 5.0 10.0 0.00 0.00 0.00 65 997.4
20260905214224 71 214 4.0 8.0 0.00 0.00 0.00 68 997.4
20260905213718 71 205 4.0 9.0 0.00 0.00 0.00 66 997.4
20260905213212 71 187 4.0 9.0 0.00 0.00 0.00 65 997.5
20260905212200 71 188 4.0 9.0 0.00 0.00 0.00 65 997.5
20260905211653 71 149 4.0 8.0 0.00 0.00 0.00 63 997.5
20260905211147 72 192 3.0 7.0 0.00 0.00 0.00 62 997.6
20260905210642 72 246 3.0 8.0 0.00 0.00 0.00 64 997.7
20260905210136 72 229 3.0 9.0 0.00 0.00 0.00 64 997.7
20260905205629 72 192 3.0 9.0 0.00 0.00 0.00 62 997.8
20260905205124 72 254 4.0 8.0 0.00 0.00 0.00 64 997.6
20260905204112 72 207 3.0 7.0 0.00 0.00 0.00 63 997.6
20260905203606 72 207 3.0 8.0 0.00 0.00 0.00 63 997.5
20260905203100 71 248 3.0 8.0 0.00 0.00 0.00 64 997.5
20260905202554 71 196 3.0 7.0 0.00 0.00 0.00 64 997.5
20260905202048 71 277 3.0 7.0 0.00 0.00 0.00 65 997.5
20260905201035 70 242 4.0 8.0 0.00 0.00 0.00 66 997.6
20260905200530 70 224 3.0 9.0 0.00 0.00 0.00 66 997.6
20260905200024 70 193 3.0 9.0 0.00 0.00 0.00 67 997.7
20260905195518 70 231 3.0 9.0 0.00 0.00 0.00 68 997.7
20260905195011 70 271 4.0 10.0 0.00 0.00 0.00 69 997.8
20260905194506 70 205 4.0 10.0 0.00 0.00 0.00 69 997.9
20260905193959 71 186 3.0 8.0 0.00 0.00 0.00 69 997.9
20260905193454 71 221 3.0 6.0 0.00 0.00 0.00 68 997.7
20260905192948 71 248 3.0 6.0 0.00 0.00 0.00 68 997.7
20260905192442 70 209 3.0 7.0 0.00 0.00 0.00 66 997.8
20260905191430 70 281 4.0 9.0 0.00 0.00 0.00 65 997.8
20260905190924 70 273 4.0 9.0 0.00 0.00 0.00 64 997.9
20260905190417 70 219 3.0 7.0 0.00 0.00 0.00 66 997.9
20260905185912 70 231 3.0 7.0 0.00 0.00 0.00 66 997.8
20260905185406 70 228 3.0 7.0 0.00 0.00 0.00 67 997.7
20260905184859 70 234 2.0 7.0 0.00 0.00 0.00 68 997.7
20260905184354 70 286 2.0 7.0 0.00 0.00 0.00 68 997.7
20260905183848 69 238 3.0 7.0 0.00 0.00 0.00 68 997.8
20260905183342 69 236 3.0 7.0 0.00 0.00 0.00 67 997.8
20260905182835 69 246 2.0 5.0 0.00 0.00 0.00 69 997.9
20260905182330 69 259 2.0 5.0 0.00 0.00 0.00 70 997.8
20260905181317 68 248 3.0 8.0 0.00 0.00 0.00 71 997.9
20260905180306 67 193 2.0 6.0 0.00 0.00 0.00 73 997.8
20260905175800 67 253 2.0 4.0 0.00 0.00 0.00 74 997.8
20260905175253 66 185 2.0 5.0 0.00 0.00 0.00 75 997.8
20260905174242 65 234 3.0 7.0 0.00 0.00 0.00 77 997.7
20260905173736 65 279 2.0 7.0 0.00 0.00 0.00 77 997.7
20260905173230 65 254 2.0 6.0 0.00 0.00 0.00 78 997.7
20260905172802 64 248 2.0 5.0 0.00 0.00 0.00 78 997.7
20260905172702 64 240 2.0 6.0 0.00 0.00 0.00 78 997.6
20260905172401 63 261 2.0 6.0 0.00 0.00 0.00 80 997.5
20260905170700 63 250 2.0 6.0 0.00 0.00 0.00 80 997.5
20260905170154 63 249 1.0 5.0 0.00 0.00 0.00 81 997.5
20260905165648 62 197 1.0 5.0 0.00 0.00 0.00 82 997.4
20260905163625 61 194 3.0 6.0 0.00 0.00 0.00 83 997.3
20260905163118 61 250 3.0 6.0 0.00 0.00 0.00 83 997.3
20260905162612 60 185 3.0 7.0 0.00 0.00 0.00 83 997.2
20260905162112 60 186 2.0 7.0 0.00 0.00 0.00 85 997.2
20260905161609 60 190 2.0 5.0 0.00 0.00 0.00 85 997.2
20260905161106 60 169 2.0 5.0 0.00 0.00 0.00 86 997.2
20260905160607 59 175 2.0 9.0 0.00 0.00 0.00 87 997.2
20260905160107 59 198 3.0 9.0 0.00 0.00 0.00 87 997.3
20260905155608 59 157 3.0 6.0 0.00 0.00 0.00 88 997.3
20260905155105 59 155 3.0 8.0 0.00 0.00 0.00 88 997.3
20260905154606 58 153 3.0 8.0 0.00 0.00 0.00 89 997.3
20260905154106 58 197 3.0 7.0 0.00 0.00 0.00 89 997.4
20260905153105 58 146 3.0 8.0 0.00 0.00 0.00 90 997.3
20260905152105 58 183 3.0 6.0 0.00 0.00 0.00 90 997.3
20260905151606 58 196 3.0 8.0 0.00 0.00 0.00 90 997.2
20260905151102 57 172 2.0 8.0 0.00 0.00 0.00 91 997.2
20260905150601 57 194 2.0 6.0 0.00 0.00 0.00 91 997.3
20260905145600 57 194 2.0 5.0 0.00 0.00 0.00 91 997.2
20260905145100 57 192 1.0 5.0 0.00 0.00 0.00 91 997.2
20260905144601 57 176 1.0 4.0 0.00 0.00 0.00 91 997.1
20260905144100 56 183 1.0 4.0 0.00 0.00 0.00 90 997.1
20260905143601 56 146 1.0 3.0 0.00 0.00 0.00 90 997.0
20260905143102 56 151 0.0 1.0 0.00 0.00 0.00 90 997.1
20260905142558 56 151 0.0 5.0 0.00 0.00 0.00 90 997.0
20260905142056 56 149 0.0 5.0 0.00 0.00 0.00 90 996.9
20260905141057 56 158 0.0 1.0 0.00 0.00 0.00 90 996.9
20260905140557 56 157 0.0 1.0 0.00 0.00 0.00 90 996.8
20260905140057 56 157 0.0 1.0 0.00 0.00 0.00 90 996.8
20260905135558 56 157 0.0 1.0 0.00 0.00 0.00 90 996.8
20260905135057 56 157 0.0 1.0 0.00 0.00 0.00 90 996.7
20260905134557 56 157 0.0 1.0 0.00 0.00 0.00 90 996.7
20260905134056 56 157 0.0 2.0 0.00 0.00 0.00 90 996.7
20260905133558 56 157 0.0 2.0 0.00 0.00 0.00 90 996.7
20260905132556 56 157 0.0 2.0 0.00 0.00 0.00 90 996.7
20260905132058 56 158 0.0 2.0 0.00 0.00 0.00 90 996.7
20260905131558 56 157 0.0 3.0 0.00 0.00 0.00 90 996.7
20260905131057 56 157 0.0 3.0 0.00 0.00 0.00 90 996.7
20260905130055 56 166 0.0 0.0 0.00 0.00 0.00 90 996.7
20260905125601 56 165 0.0 0.0 0.00 0.00 0.00 89 996.7
20260905125043 56 165 0.0 0.0 0.00 0.00 0.00 89 996.7
20260905124537 56 167 0.0 0.0 0.00 0.00 0.00 89 996.9
20260905123525 56 175 0.0 0.0 0.00 0.00 0.00 89 996.9
20260905123019 56 175 0.0 0.0 0.00 0.00 0.00 89 996.9
20260905122513 56 175 0.0 0.0 0.00 0.00 0.00 89 996.8
20260905121501 56 175 0.0 0.0 0.00 0.00 0.00 89 996.8
20260905120955 56 179 0.0 0.0 0.00 0.00 0.00 89 996.8
20260905115948 56 158 0.0 0.0 0.00 0.00 0.00 89 996.9
20260905115433 56 157 0.0 0.0 0.00 0.00 0.00 89 996.9
20260905114927 56 181 0.0 0.0 0.00 0.00 0.00 89 996.9
20260905114420 56 190 0.0 0.0 0.00 0.00 0.00 89 996.7